Starlink 30809

operational
NORAD ID: 58183 Int'l Des: 2023-167 Owner: SPXS Country: US Constellation: starlink
LEOCIRCULAR

About Starlink 30809

Description loading...

Live Position

Loading 3D Globe...

Upcoming Passes

Altitude History

Altitude vs Time

uPlot chart will show altitude changes over time

Two-Line Element Set

1 58183U 23167J 25348.14786913 .00000687 00000-0 65914-4 0 9995
2 58183 43.0051 251.0794 0001403 267.0663 93.0019 15.02529435118082
Epoch: Dec 14, 2025 • Age: 36 hours

Current Status

Altitude 570.5 km
Velocity 7.58 km/s
Sub-Earth Point -40.76°S, 147.37°W
Launch Date Oct 30, 2023
Age 2.1 years
Type internet

Technical Details

Classification Payload
Mass 730.00 kg
Dry Mass 700.00 kg
Total Mass 730.00 kg
Length 0.30 m
Diameter 4.10 m
Span 29.00 m
Shape Box + pan
Manufacturer SPXS
Bus Type Starlink V2M
Phase Status In Orbit
Owner/State SPXS/US

Large Constellations

Loading constellations...